DECAYED

FENGYUN 1C DEB, 31063 (Decayed)

Orbit data source: Space-Track

FENGYUN 1C DEB, 31063 was space debris in SSO originally from a launch on Mon, 10 May 1999 UTC launched from the Taiyaun Space Center, China (TSC). Fengyun 1C debris stems from the Chinese weather satellite Fengyun-1C, which was intentionally destroyed by a Chinese anti-satellite missile in 2007. This event dramatically increased the amount of space debris, with thousands of trackable fragments posing hazards to satellites and human spaceflight. The Fengyun 1C debris cloud has become a focal point in discussions about space sustainability and the need for international regulations to prevent the creation of new debris.

Loading next visibility...
Identifier
31063, 1999-025BFH
Orbit
Decayed
Country
Flag of CNCN / PRC
Related business
Manufacturer
Unknown
Mission
Decayed spacecraft
Bus & Motor
Unknown
Mass
Unknown
Launch date (UTC)
1999-05-10 (27 years ago)
Launch vehicle
Unknown
Launch site
Taiyaun Space Center, China (TSC)
Object type
Payload
Rocket body
Debris
Shape & HBR
Unknown shape, 0.1 m
Radar Cross Section
Small (<0.1 m²)

Expand to show TLE details & history
Last TLE update: 1 year ago

TLE from 1 year ago
0 FENGYUN 1C DEB
1 31063U 99025BFH 25174.10421475 -.00000089  00000-0  00000+0 0  9998
2 31063  99.8597 131.7848 0017307 242.7082 177.9548 14.96525525959892
Epoch: 2025-06-23T02:30Z
TLE epoch observation values (Epoch: 2025-06-23T02:30:04.154Z)
Latitude
59.29914°
Longitude
165.82347°
Altitude
599.679 km
Speed
7.559 km/s
True Right ascension
07h 39m 26s
True Declination
59° 08' 40"
Sunlit
Object was in daylight at epoch
Visualization orbit readout
Latitude
Unknown
Longitude
Unknown
Altitude
Unknown
Speed
Unknown
Apparent Right ascension
Unknown
Apparent Declination
Unknown
Sunlit
N/A
Visualization observer readout
Local Sidereal Time
02:41:36
Azimuth
Unknown
Elevation
Unknown
Doppler factor
Unknown
Orbital elements
Apogee altitude
586.793 km
Perigee altitude
562.726 km
Semi-major axis
6,952.896 km
Eccentricity
0.00173
Inclination
99.8597°
RAAN
131.7848°
Arg. of periapsis
242.7082°
True anomaly
177.96186°
Mean anomaly
177.9548°
Eccentric anomaly
177.95833°
Mean motion
3.74364 °/min
Orbital period
96.16 mins
BSTAR
0
Loading maneuver chart data...
Computing Atmospheric mass density...

Documentation

Showing up to 5 results
|